| time (UTC) | temp F | wind direction | speed MPH | gust MPH | rain 1hr in | rain 24hr in | rain mn in | humidity % | barometer mb |
| 20260504141034 | 85 | 36 | 0.0 | 8.0 | 0.00 | 0.00 | 0.00 | 68 | 1010.4 |
| 20260504140517 | 85 | 15 | 0.0 | 5.0 | 0.00 | 0.00 | 0.00 | 68 | 1010.3 |
| 20260504130821 | 87 | 38 | 0.0 | 8.0 | 0.00 | 0.00 | 0.00 | 65 | 1009.8 |
| 20260504130315 | 87 | 61 | 4.0 | 8.0 | 0.00 | 0.00 | 0.00 | 65 | 1009.7 |
| 20260504130247 | 87 | 30 | 0.0 | 5.0 | 0.00 | 0.00 | 0.00 | 65 | 1009.8 |
| 20260504120126 | 88 | 66 | 6.0 | 17.0 | 0.00 | 0.00 | 0.00 | 66 | 1009.6 |
| 20260504110446 | 89 | 346 | 2.0 | 17.0 | 0.00 | 0.00 | 0.00 | 64 | 1009.1 |
| 20260504100249 | 91 | 58 | 0.0 | 13.0 | 0.00 | 0.00 | 0.00 | 62 | 1008.1 |
| 20260504081939 | 94 | 346 | 5.0 | 17.0 | 0.00 | 0.00 | 0.00 | 56 | 1007.9 |
| 20260504081424 | 94 | 26 | 5.0 | 17.0 | 0.00 | 0.00 | 0.00 | 57 | 1007.7 |
| 20260504080922 | 95 | 355 | 0.0 | 20.0 | 0.00 | 0.00 | 0.00 | 54 | 1007.7 |
| 20260504080748 | 95 | 73 | 7.0 | 20.0 | 0.00 | 0.00 | 0.00 | 55 | 1007.6 |
| 20260504070245 | 94 | 8 | 0.0 | 17.0 | 0.00 | 0.00 | 0.00 | 57 | 1008.3 |
| 20260504060156 | 93 | 15 | 2.0 | 8.0 | 0.00 | 0.00 | 0.00 | 64 | 1009.1 |
| 20260504060119 | 95 | 60 | 2.0 | 8.0 | 0.00 | 0.00 | 0.00 | 60 | 1009.1 |
| 20260504050410 | 91 | 7 | 8.0 | 13.0 | 0.00 | 0.00 | 0.00 | 70 | 1009.7 |
| 20260504045909 | 92 | 1 | 2.0 | 13.0 | 0.00 | 0.00 | 0.00 | 70 | 1009.8 |
| 20260504045404 | 92 | 40 | 1.0 | 8.0 | 0.00 | 0.00 | 0.00 | 69 | 1009.8 |
| 20260504044849 | 91 | 36 | 0.0 | 10.0 | 0.00 | 0.00 | 0.00 | 68 | 1010.1 |
| 20260504044340 | 92 | 20 | 0.0 | 13.0 | 0.00 | 0.00 | 0.00 | 68 | 1010.3 |
| 20260504043825 | 91 | 168 | 8.0 | 15.0 | 0.00 | 0.00 | 0.00 | 70 | 1010.2 |
| 20260504043320 | 91 | 201 | 9.0 | 15.0 | 0.00 | 0.00 | 0.00 | 69 | 1010.5 |
| 20260504042815 | 92 | 36 | 3.0 | 15.0 | 0.00 | 0.00 | 0.00 | 69 | 1010.5 |
| 20260504042740 | 90 | 221 | 5.0 | 15.0 | 0.00 | 0.00 | 0.00 | 70 | 1010.5 |
| 20260504042154 | 90 | 221 | 11.0 | 15.0 | 0.00 | 0.00 | 0.00 | 71 | 1010.7 |
| 20260504041256 | 89 | 231 | 5.0 | 25.0 | 0.00 | 0.00 | 0.00 | 71 | 1010.6 |
| 20260504040739 | 88 | 216 | 8.0 | 25.0 | 0.00 | 0.00 | 0.00 | 75 | 1010.7 |
| 20260504040227 | 90 | 220 | 6.0 | 20.0 | 0.00 | 0.00 | 0.00 | 74 | 1010.6 |
| 20260504035718 | 90 | 26 | 4.0 | 17.0 | 0.00 | 0.00 | 0.00 | 71 | 1010.9 |
| 20260504035216 | 91 | 12 | 8.0 | 17.0 | 0.00 | 0.00 | 0.00 | 71 | 1010.9 |
| 20260504034706 | 89 | 21 | 0.0 | 15.0 | 0.00 | 0.00 | 0.00 | 71 | 1011.1 |
| 20260504034156 | 90 | 24 | 6.0 | 15.0 | 0.00 | 0.00 | 0.00 | 72 | 1011.0 |
| 20260504033647 | 91 | 335 | 7.0 | 15.0 | 0.00 | 0.00 | 0.00 | 72 | 1011.1 |
| 20260504033145 | 91 | 15 | 2.0 | 13.0 | 0.00 | 0.00 | 0.00 | 66 | 1011.1 |
| 20260504033007 | 91 | 72 | 6.0 | 13.0 | 0.00 | 0.00 | 0.00 | 66 | 1011.3 |
| 20260504032132 | 92 | 39 | 1.0 | 8.0 | 0.00 | 0.00 | 0.00 | 66 | 1011.4 |
| 20260504031615 | 91 | 33 | 2.0 | 13.0 | 0.00 | 0.00 | 0.00 | 65 | 1011.1 |
| 20260504031105 | 90 | 42 | 0.0 | 15.0 | 0.00 | 0.00 | 0.00 | 66 | 1011.2 |
| 20260504030555 | 89 | 33 | 3.0 | 15.0 | 0.00 | 0.00 | 0.00 | 72 | 1011.4 |
| 20260504030058 | 89 | 5 | 6.0 | 15.0 | 0.00 | 0.00 | 0.00 | 71 | 1011.3 |
| 20260504025538 | 89 | 338 | 5.0 | 15.0 | 0.00 | 0.00 | 0.00 | 72 | 1011.3 |
| 20260504025032 | 90 | 322 | 6.0 | 15.0 | 0.00 | 0.00 | 0.00 | 71 | 1011.4 |
| 20260504024519 | 90 | 358 | 5.0 | 15.0 | 0.00 | 0.00 | 0.00 | 71 | 1011.4 |
| 20260504024015 | 91 | 29 | 0.0 | 10.0 | 0.00 | 0.00 | 0.00 | 68 | 1011.4 |
| 20260504023508 | 91 | 22 | 0.0 | 10.0 | 0.00 | 0.00 | 0.00 | 67 | 1011.5 |
| 20260504022959 | 91 | 75 | 5.0 | 20.0 | 0.00 | 0.00 | 0.00 | 68 | 1011.7 |
| 20260504022447 | 89 | 23 | 0.0 | 20.0 | 0.00 | 0.00 | 0.00 | 68 | 1011.8 |
| 20260504021935 | 90 | 18 | 0.0 | 17.0 | 0.00 | 0.00 | 0.00 | 69 | 1011.6 |
| 20260504021435 | 90 | 340 | 3.0 | 10.0 | 0.00 | 0.00 | 0.00 | 68 | 1012.1 |
| 20260504020933 | 89 | 34 | 3.0 | 10.0 | 0.00 | 0.00 | 0.00 | 69 | 1011.8 |
| 20260504020420 | 90 | 59 | 2.0 | 10.0 | 0.00 | 0.00 | 0.00 | 69 | 1011.9 |
| 20260504015918 | 90 | 31 | 0.0 | 8.0 | 0.00 | 0.00 | 0.00 | 69 | 1011.8 |
| 20260504015407 | 90 | 345 | 1.0 | 5.0 | 0.00 | 0.00 | 0.00 | 69 | 1011.9 |
| 20260504014901 | 89 | 356 | 2.0 | 8.0 | 0.00 | 0.00 | 0.00 | 69 | 1011.9 |
| 20260504014352 | 89 | 27 | 0.0 | 8.0 | 0.00 | 0.00 | 0.00 | 69 | 1012.1 |
| 20260504013845 | 89 | 233 | 6.0 | 15.0 | 0.00 | 0.00 | 0.00 | 70 | 1012.1 |
| 20260504013339 | 88 | 109 | 0.0 | 15.0 | 0.00 | 0.00 | 0.00 | 70 | 1012.2 |
| 20260504012836 | 89 | 54 | 1.0 | 10.0 | 0.00 | 0.00 | 0.00 | 68 | 1012.0 |
| 20260504012326 | 89 | 47 | 0.0 | 10.0 | 0.00 | 0.00 | 0.00 | 69 | 1012.1 |
| 20260504011825 | 89 | 132 | 2.0 | 13.0 | 0.00 | 0.00 | 0.00 | 69 | 1012.1 |
| 20260504011322 | 89 | 24 | 3.0 | 15.0 | 0.00 | 0.00 | 0.00 | 70 | 1012.1 |
| 20260504010814 | 89 | 32 | 1.0 | 15.0 | 0.00 | 0.00 | 0.00 | 70 | 1012.0 |
| 20260504010310 | 89 | 232 | 4.0 | 13.0 | 0.00 | 0.00 | 0.00 | 70 | 1012.1 |
| 20260504005757 | 90 | 197 | 3.0 | 13.0 | 0.00 | 0.00 | 0.00 | 69 | 1012.1 |
| 20260504005646 | 90 | 20 | 0.0 | 13.0 | 0.00 | 0.00 | 0.00 | 68 | 1012.0 |
| 20260504004743 | 89 | 354 | 2.0 | 8.0 | 0.00 | 0.00 | 0.00 | 69 | 1012.0 |
| 20260504004233 | 89 | 144 | 4.0 | 10.0 | 0.00 | 0.00 | 0.00 | 69 | 1012.0 |
| 20260504003716 | 90 | 213 | 5.0 | 8.0 | 0.00 | 0.00 | 0.00 | 69 | 1011.9 |
| 20260504003627 | 88 | 88 | 2.0 | 10.0 | 0.00 | 0.00 | 0.00 | 70 | 1011.9 |
| 20260504002633 | 87 | 216 | 6.0 | 13.0 | 0.00 | 0.00 | 0.00 | 72 | 1011.9 |
| 20260504002124 | 88 | 40 | 0.0 | 13.0 | 0.00 | 0.00 | 0.00 | 70 | 1011.8 |
| 20260504001619 | 88 | 169 | 8.0 | 10.0 | 0.00 | 0.00 | 0.00 | 70 | 1011.7 |
| 20260504001111 | 87 | 48 | 0.0 | 8.0 | 0.00 | 0.00 | 0.00 | 70 | 1011.5 |
| 20260504000605 | 87 | 68 | 5.0 | 13.0 | 0.00 | 0.00 | 0.00 | 70 | 1011.6 |
| 20260504000058 | 86 | 50 | 4.0 | 13.0 | 0.00 | 0.00 | 0.00 | 71 | 1011.6 |
| 20260503235535 | 86 | 60 | 0.0 | 10.0 | 0.00 | 0.00 | 0.00 | 71 | 1011.8 |
| 20260503235027 | 86 | 39 | 5.0 | 10.0 | 0.00 | 0.00 | 0.00 | 71 | 1011.6 |
| 20260503234525 | 87 | 64 | 0.0 | 8.0 | 0.00 | 0.00 | 0.00 | 70 | 1011.6 |
| 20260503234010 | 87 | 31 | 0.0 | 8.0 | 0.00 | 0.00 | 0.00 | 70 | 1011.4 |
| 20260503233506 | 87 | 53 | 0.0 | 8.0 | 0.00 | 0.00 | 0.00 | 70 | 1011.1 |
| 20260503232954 | 87 | 80 | 2.0 | 10.0 | 0.00 | 0.00 | 0.00 | 70 | 1011.2 |
| 20260503232445 | 87 | 43 | 0.0 | 10.0 | 0.00 | 0.00 | 0.00 | 70 | 1011.2 |
| 20260503231939 | 86 | 39 | 0.0 | 8.0 | 0.00 | 0.00 | 0.00 | 71 | 1011.1 |
| 20260503231430 | 86 | 80 | 6.0 | 8.0 | 0.00 | 0.00 | 0.00 | 71 | 1010.8 |
| 20260503230923 | 86 | 66 | 3.0 | 5.0 | 0.00 | 0.00 | 0.00 | 71 | 1010.8 |
| 20260503230417 | 85 | 47 | 1.0 | 2.0 | 0.00 | 0.00 | 0.00 | 72 | 1010.8 |
| 20260503225911 | 85 | 167 | 0.0 | 8.0 | 0.00 | 0.00 | 0.00 | 71 | 1010.9 |
| 20260503225736 | 85 | 26 | 0.0 | 8.0 | 0.00 | 0.00 | 0.00 | 72 | 1010.9 |
| 20260503224841 | 84 | 51 | 1.0 | 5.0 | 0.00 | 0.00 | 0.00 | 72 | 1010.9 |
| 20260503224719 | 84 | 43 | 2.0 | 5.0 | 0.00 | 0.00 | 0.00 | 73 | 1010.6 |
| 20260503223826 | 84 | 30 | 0.0 | 5.0 | 0.00 | 0.00 | 0.00 | 74 | 1010.8 |
| 20260503223436 | 84 | 56 | 2.0 | 5.0 | 0.00 | 0.00 | 0.00 | 74 | 1010.6 |
| 20260503222257 | 84 | 59 | 0.0 | 2.0 | 0.00 | 0.00 | 0.00 | 74 | 1010.5 |
| 20260503222103 | 83 | 49 | 0.0 | 2.0 | 0.00 | 0.00 | 0.00 | 74 | 1010.5 |
| 20260503221226 | 83 | 44 | 0.0 | 2.0 | 0.00 | 0.00 | 0.00 | 75 | 1010.4 |
| 20260503220701 | 82 | 31 | 0.0 | 2.0 | 0.00 | 0.00 | 0.00 | 76 | 1010.5 |
| 20260503220154 | 82 | 45 | 0.0 | 2.0 | 0.00 | 0.00 | 0.00 | 76 | 1010.3 |
| 20260503215645 | 82 | 46 | 0.0 | 2.0 | 0.00 | 0.00 | 0.00 | 76 | 1010.5 |
| 20260503215138 | 82 | 44 | 0.0 | 2.0 | 0.00 | 0.00 | 0.00 | 76 | 1010.3 |
| 20260503214634 | 82 | 46 | 0.0 | 8.0 | 0.00 | 0.00 | 0.00 | 76 | 1010.4 |
| 20260503214116 | 82 | 68 | 0.0 | 5.0 | 0.00 | 0.00 | 0.00 | 76 | 1010.2 |
| 20260503213608 | 82 | 47 | 0.0 | 0.0 | 0.00 | 0.00 | 0.00 | 76 | 1010.5 |
| 20260503213040 | 82 | 30 | 0.0 | 0.0 | 0.00 | 0.00 | 0.00 | 76 | 1010.3 |
| 20260503212530 | 82 | 42 | 0.0 | 0.0 | 0.00 | 0.00 | 0.00 | 76 | 1010.3 |
| 20260503212431 | 82 | 26 | 0.0 | 0.0 | 0.00 | 0.00 | 0.00 | 76 | 1010.5 |
| 20260503211517 | 82 | 25 | 0.0 | 0.0 | 0.00 | 0.00 | 0.00 | 76 | 1010.4 |
| 20260503211006 | 82 | 24 | 0.0 | 0.0 | 0.00 | 0.00 | 0.00 | 76 | 1010.3 |
| 20260503210821 | 82 | 29 | 0.0 | 0.0 | 0.00 | 0.00 | 0.00 | 76 | 1010.4 |
| 20260503205933 | 82 | 28 | 0.0 | 0.0 | 0.00 | 0.00 | 0.00 | 76 | 1010.4 |
| 20260503205428 | 82 | 42 | 0.0 | 0.0 | 0.00 | 0.00 | 0.00 | 75 | 1010.3 |
| 20260503204926 | 82 | 30 | 0.0 | 0.0 | 0.00 | 0.00 | 0.00 | 76 | 1010.3 |
| 20260503204411 | 82 | 22 | 0.0 | 0.0 | 0.00 | 0.00 | 0.00 | 76 | 1010.1 |
| 20260503203908 | 82 | 24 | 0.0 | 0.0 | 0.00 | 0.00 | 0.00 | 76 | 1010.2 |
| 20260503203835 | 82 | 25 | 0.0 | 2.0 | 0.00 | 0.00 | 0.00 | 75 | 1010.1 |
| 20260503203225 | 82 | 40 | 0.0 | 2.0 | 0.00 | 0.00 | 0.00 | 75 | 1010.1 |
| 20260503202342 | 82 | 24 | 0.0 | 2.0 | 0.00 | 0.00 | 0.00 | 75 | 1009.9 |
| 20260503201835 | 82 | 42 | 0.0 | 0.0 | 0.00 | 0.00 | 0.00 | 75 | 1010.2 |
| 20260503201313 | 82 | 28 | 0.0 | 2.0 | 0.00 | 0.00 | 0.00 | 75 | 1010.1 |
| 20260503201130 | 82 | 35 | 1.0 | 10.0 | 0.00 | 0.00 | 0.00 | 75 | 1010.3 |
| 20260503200236 | 82 | 34 | 1.0 | 10.0 | 0.00 | 0.00 | 0.00 | 75 | 1010.2 |
| 20260503195726 | 83 | 30 | 0.0 | 5.0 | 0.00 | 0.00 | 0.00 | 75 | 1010.0 |
| 20260503195216 | 83 | 54 | 4.0 | 5.0 | 0.00 | 0.00 | 0.00 | 75 | 1010.0 |
| 20260503194713 | 83 | 31 | 0.0 | 5.0 | 0.00 | 0.00 | 0.00 | 75 | 1009.9 |
| 20260503194219 | 83 | 66 | 0.0 | 2.0 | 0.00 | 0.00 | 0.00 | 75 | 1009.8 |
| 20260503193657 | 83 | 35 | 0.0 | 2.0 | 0.00 | 0.00 | 0.00 | 76 | 1009.9 |
| 20260503193136 | 82 | 39 | 0.0 | 0.0 | 0.00 | 0.00 | 0.00 | 76 | 1009.8 |
| 20260503192645 | 82 | 8 | 0.0 | 0.0 | 0.00 | 0.00 | 0.00 | 76 | 1009.5 |
| 20260503192119 | 82 | 27 | 0.0 | 2.0 | 0.00 | 0.00 | 0.00 | 76 | 1009.5 |
| 20260503191614 | 83 | 29 | 0.0 | 5.0 | 0.00 | 0.00 | 0.00 | 75 | 1009.4 |
| 20260503191116 | 83 | 53 | 1.0 | 8.0 | 0.00 | 0.00 | 0.00 | 75 | 1009.7 |
| 20260503190547 | 83 | 337 | 0.0 | 8.0 | 0.00 | 0.00 | 0.00 | 75 | 1009.5 |
| 20260503190035 | 83 | 48 | 1.0 | 8.0 | 0.00 | 0.00 | 0.00 | 75 | 1010.0 |
| 20260503185531 | 83 | 41 | 0.0 | 8.0 | 0.00 | 0.00 | 0.00 | 75 | 1009.6 |
| 20260503185019 | 83 | 37 | 0.0 | 0.0 | 0.00 | 0.00 | 0.00 | 75 | 1009.7 |
| 20260503184515 | 83 | 25 | 0.0 | 0.0 | 0.00 | 0.00 | 0.00 | 75 | 1009.9 |
| 20260503183955 | 83 | 25 | 0.0 | 2.0 | 0.00 | 0.00 | 0.00 | 76 | 1009.9 |
| 20260503183436 | 83 | 36 | 0.0 | 8.0 | 0.00 | 0.00 | 0.00 | 76 | 1009.6 |
| 20260503183341 | 83 | 86 | 2.0 | 10.0 | 0.00 | 0.00 | 0.00 | 76 | 1009.8 |
| 20260503182416 | 83 | 38 | 0.0 | 10.0 | 0.00 | 0.00 | 0.00 | 75 | 1009.7 |
| 20260503181915 | 83 | 40 | 2.0 | 8.0 | 0.00 | 0.00 | 0.00 | 75 | 1009.6 |
| 20260503181407 | 83 | 50 | 1.0 | 5.0 | 0.00 | 0.00 | 0.00 | 75 | 1009.5 |
| 20260503180902 | 83 | 46 | 0.0 | 5.0 | 0.00 | 0.00 | 0.00 | 75 | 1009.4 |
| 20260503180357 | 83 | 27 | 0.0 | 2.0 | 0.00 | 0.00 | 0.00 | 75 | 1009.5 |
| 20260503175826 | 83 | 31 | 0.0 | 5.0 | 0.00 | 0.00 | 0.00 | 75 | 1009.7 |
| 20260503175323 | 83 | 32 | 0.0 | 8.0 | 0.00 | 0.00 | 0.00 | 75 | 1009.8 |
| 20260503175144 | 83 | 69 | 1.0 | 8.0 | 0.00 | 0.00 | 0.00 | 75 | 1009.6 |
| 20260503174306 | 83 | 0 | 0.0 | 2.0 | 0.00 | 0.00 | 0.00 | 75 | 1010.0 |
| 20260503174140 | 83 | 29 | 0.0 | 8.0 | 0.00 | 0.00 | 0.00 | 74 | 1009.7 |
| 20260503173228 | 83 | 306 | 2.0 | 8.0 | 0.00 | 0.00 | 0.00 | 74 | 1009.8 |
| 20260503172724 | 83 | 27 | 0.0 | 8.0 | 0.00 | 0.00 | 0.00 | 74 | 1009.8 |
| 20260503172207 | 83 | 221 | 4.0 | 5.0 | 0.00 | 0.00 | 0.00 | 73 | 1009.6 |
| 20260503171704 | 83 | 30 | 0.0 | 5.0 | 0.00 | 0.00 | 0.00 | 73 | 1009.8 |
| 20260503171153 | 83 | 39 | 0.0 | 2.0 | 0.00 | 0.00 | 0.00 | 73 | 1009.8 |
| 20260503170652 | 83 | 45 | 0.0 | 2.0 | 0.00 | 0.00 | 0.00 | 74 | 1009.8 |
| 20260503170128 | 83 | 28 | 0.0 | 8.0 | 0.00 | 0.00 | 0.00 | 74 | 1009.7 |
| 20260503150730 | 85 | 28 | 0.0 | 0.0 | 0.00 | 0.00 | 0.00 | 67 | 1009.6 |